22:16
Airports
History
Links
Donate
Help keep this website running!
PayPal
Bitcoin
This page is community maintained. The information is intended for PC simulator navigation or reference.
Always use approved charts for navigation.
EDAJ
Gera Leumitz
Gera Leumitz (EDAJ)
Gera, Thüringen, Germany (7546)
(U)
Lat/Lng:50° 52' 50.37" N / 12° 8' 14.38" E
50.880657 / 12.137328
Elevation:1015'ft / 309mMSL
ID / ICAO:EDAJ
Runways:1
Longest:06-24
Asphalt 756m / 2,482ft
Nearby Weather21:50 GMT 2017-10-17
Nearby weather at EDDP, Leipzig-Halle located 37.7 nautical miles from EDAJ
Altimeter: 30.06
Visibility: 6.2 statute miles
Wind: 6 knots (from 200°)
Temp: 13°c / 55°f
Humidity: 87.6%

METAR: EDDP 172150Z 20006KT CAVOK 13/11 Q1018 NOSIG

(Powered by phpweather)
Nearby VORs <50NM
Nearby NDBs
Runway 06 / 24
Dimensions:756.4 x 24.1m 2482' x 79'ft
Surface:Asphalt
Edge Lights:Medium intensity
Runway 06 [A]Runway 24 [B]
Heading:063°TH 243°TH
Lat:
Lng:
50° 52' 45.04"N
12° 7' 57.08"E
50° 52' 55.69"N
12° 8' 31.68"E
ALS:RAILRAIL
User Notes and Comments
50° 52' 50.37" N / 12° 8' 14.38" E
Distance To
Airport ID:
Nearby Airports
(C) Altenburg Nobitz 17.5 NM
EDAC ENE 66°
(U) JENA SCHONGLEINA 18.6 NM
EDBJ W 277°
(C) BOEHLEN 25.1 NM
EDOE NNE 23°
(C) LAUCHA 31.8 NM
EDBL NW 322°
(C) Chemnitz Jahnsdorf 31.9 NM
EDCJ ESE 106°
(U) MERSEBURG 34.4 NM
EDAM NNW 345°
(C) Leipzig-Halle 37.7 NM
EDDP ( WX ) N
VFR Chart
Flight Planning at SkyVector.com